Flag for United Kingdom Weather past 2 weeks in Luton, England, United Kingdom

Now
66 °F

Partly sunny.


Feels Like: 66 °F
Forecast: 57 / 65 °F
Wind: 9 mph from Southwest

Location: Luton Airport

Current Time: Sep 30, 2014 at 12:59:02 PM

Latest Report: Sep 30, 2014 at 12:20 PM


Visibility: N/A

Pressure: 30.24 "Hg

Humidity: 68%

Dew point: 55 °F

Location of LutonLocation

Historic Weather in Luton — Graph

°F

Luton temperature yesterday

Maximum temperature yesterday: 66 °F (at 12:20 PM)
Minimum temperature yesterday: 52 °F (at 6:50 AM)
Average temperature yesterday: 59 °F

Past Weeks' High & Low Weather Summary

 TemperatureHumidityPressure
High75 °F (Sep 18, 3:20 PM)100% (Sep 15, 11:20 PM)30.33 "Hg (Sep 15, 11:20 PM)
Low43 °F (Sep 22, 6:50 AM)45% (Sep 24, 4:20 PM)29.80 "Hg (Sep 18, 2:20 PM)
Average59 °F84%30.07 "Hg
* Reported Sep 15 11:20 AM — Sep 30 11:20 AM, Luton, Weather by CustomWeather, © 2014

Note: Actual official high and low records may vary slightly from our data, if they occured in-between our weather recording intervals... More about our weather records

Advertising

Luton weather history for previous 24 hours

 ConditionsComfort  
Time TempWeatherWind HumidityBarometerVisibility
11:20 AM
Sep 30
64 °FScattered clouds.6 mph78%30.24 "HgN/A
10:50 AM63 °FScattered clouds.7 mph83%30.21 "HgN/A
10:20 AM61 °FPartly sunny.6 mph94%30.21 "HgN/A
9:50 AM59 °FLow clouds.5 mph94%30.21 "Hg5 mi
9:20 AM59 °FPartly sunny.6 mph94%30.21 "Hg5 mi
8:50 AM59 °FPartly sunny.5 mph94%30.21 "Hg4 mi
8:20 AM57 °FScattered clouds.3 mph100%30.21 "Hg4 mi
7:50 AM55 °FPassing clouds.5 mph100%30.21 "Hg5 mi
7:20 AM55 °FFog.6 mph100%30.18 "Hg3 mi
6:50 AM55 °FFog.6 mph100%30.18 "Hg2 mi
6:20 AM54 °FFog.5 mph100%30.18 "Hg2 mi
5:50 AM55 °FFog.No wind100%30.18 "Hg2 mi
5:20 AM55 °FFog.7 mph100%30.18 "Hg2 mi
4:50 AM55 °FFog.5 mph100%30.15 "Hg2 mi
4:20 AM54 °FFog.3 mph100%30.15 "Hg1 mi
3:50 AM54 °FFog.No wind100%30.15 "Hg1 mi
3:20 AM54 °FFog.No wind100%30.15 "Hg1 mi
2:50 AM54 °FFog.2 mph100%30.15 "Hg2 mi
2:20 AM55 °FFog.2 mph100%30.15 "Hg1 mi
1:50 AM54 °FFog.2 mph100%30.15 "Hg1 mi
1:20 AM55 °FFog.2 mph100%30.15 "Hg1 mi
12:50 AM54 °FFog.2 mph100%30.15 "Hg1 mi
12:20 AM55 °FFog.2 mph100%30.15 "Hg2 mi
11:50 PM
Sep 29
55 °FFog.6 mph100%30.15 "Hg2 mi
11:20 PM55 °FFog.5 mph100%30.12 "Hg3 mi
10:50 PM57 °FHaze.3 mph94%30.12 "Hg3 mi
10:20 PM57 °FClear.7 mph100%30.12 "Hg4 mi
9:50 PM57 °FClear.7 mph100%30.12 "Hg5 mi
9:20 PM57 °FPassing clouds.5 mph100%30.12 "Hg4 mi
8:50 PM59 °FPartly cloudy.3 mph94%30.12 "Hg4 mi
8:20 PM59 °FPassing clouds.3 mph100%30.12 "Hg4 mi
7:50 PM61 °FFog.3 mph94%30.12 "Hg3 mi
7:20 PM61 °FClear.2 mph94%30.12 "Hg4 mi
6:50 PM61 °FScattered clouds.2 mph100%30.12 "Hg4 mi
6:20 PM63 °FPassing clouds.No wind94%30.09 "Hg5 mi
5:50 PM63 °FPassing clouds.2 mph94%30.09 "Hg5 mi
5:20 PM63 °FLight rain. Clear.3 mph88%30.09 "Hg6 mi
4:50 PM63 °FClear.6 mph88%30.09 "Hg6 mi
4:20 PM63 °FScattered clouds.6 mph88%30.09 "Hg6 mi
3:50 PM64 °FScattered clouds.6 mph83%30.09 "Hg6 mi
3:20 PM64 °FClear.5 mph88%30.09 "Hg6 mi
2:50 PM63 °FClear.3 mph94%30.09 "Hg6 mi
2:20 PM61 °FPassing clouds.5 mph100%30.09 "Hg5 mi
1:50 PM63 °FLight rain. Passing clouds.3 mph88%30.12 "HgN/A
1:20 PM63 °FLight rain. Passing clouds.5 mph88%30.12 "HgN/A
12:50 PM64 °FPassing clouds.3 mph73%30.12 "HgN/A
12:20 PM66 °FScattered clouds.5 mph73%30.12 "HgN/A
Weather by CustomWeather, © 2014

See weather overviewHow to use our weather pages